Regional Weather Roundup
Issued by NWS

Home | Current Version | Previous Version | Graphics & Text | Print | Product List | Glossary On
Versions: 1 2 3 4 5 6 7 8 9 10 11 12 13 14 15 16 17 18 19 20 21 22 23 24 25 26 27 28 29 30 31 32 33 34 35 36 37 38 39 40 41 42 43 44 45 46 47 48 49 50
000
ASUS43 KIND 012009
RWRIN

WEATHER ROUNDUP FOR INDIANA
NATIONAL WEATHER SERVICE INDIANAPOLIS IN
400 PM EDT FRI AUG 01 2014

NOTE: "FAIR" INDICATES FEW OR NO CLOUDS BELOW 12,000 FEET WITH NO
SIGNIFICANT WEATHER AND/OR OBSTRUCTIONS TO VISIBILITY.

* - STATION DOES NOT REPORT WEATHER SUCH AS PRECIPITATION OR FOG.

+ - STATION NOT QUALITY CONTROLLED BY THE NATIONAL WEATHER SERVICE.
    USE DATA WITH CAUTION...ESPECIALLY DEWPOINT AND RELATIVE
    HUMIDITY OBSERVATIONS.

INZ001>003-010>013-019-020-012100-
NORTHWEST INDIANA

CITY           SKY/WX    TMP DP  RH WIND       PRES   REMARKS
GARY /AIRPORT/ LGT RAIN  73  61  64 CALM      30.10R
KNOX *+        PTSUNNY   65  58  78 E3        30.11R
LA PORTE +     CLOUDY    64  58  80 SW7       30.14R
MICHIGAN CITY+ LGT RAIN  68  55  64 S7G17     30.12R
MONTICELLO +   MOSUNNY   78  60  54 CALM      30.07S
VALPARAISO     NOT AVBL

$$

LMZ046-743>745-012100-
SOUTHERN LAKE MICHIGAN

STATION/POSITION TIME  TEMP WIND        PRES
                       AIR  DIR/SP/G
                 (UTC) (F)  (DEG/KT/KT) (MB)
MICHIGAN CITY    2000   72  130/ 12/ 18   N/A

$$

INZ004-005-014>016-021>024-012100-
NORTH CENTRAL INDIANA

CITY           SKY/WX    TMP DP  RH WIND       PRES   REMARKS
ELKHART        LGT RAIN  66  59  77 CALM      30.12
GOSHEN         CLOUDY    72  57  59 NW8       30.10F
LOGANSPORT +   SUNNY     79  54  41 CALM      30.09F
PERU/GRISSOM   MOSUNNY   80  61  51 VRB1      30.08F
ROCHESTER +    MOSUNNY   82  55  39 N15       30.11R
SOUTH BEND     CLOUDY    72  59  63 S8        30.12S
WARSAW +       MOSUNNY   72  55  56 N9        30.11S

$$

INZ006>009-017-018-025>027-012100-
NORTHEAST INDIANA

CITY           SKY/WX    TMP DP  RH WIND       PRES   REMARKS
ANGOLA *+      SUNNY     81  61  50 SW7       30.10S
AUBURN +       MOSUNNY   79  55  44 CALM      30.10S
FORT WAYNE     MOSUNNY   81  58  45 SE6       30.10S
HUNTINGTON +   SUNNY     80  55  42 SW3       30.09S

$$

INZ028-029-035-036-043>045-051>053-012100-
WEST CENTRAL INDIANA

CITY           SKY/WX    TMP DP  RH WIND       PRES   REMARKS
GREENCASTLE +  PTSUNNY   79  59  50 SE5       30.08F
LAFAYETTE      MOSUNNY   75  58  55 S9G18     30.06F
TERRE HAUTE    PTSUNNY   77  65  66 N7        30.07F

$$

INZ030>032-037>040-046>048-054>057-064-065-012100-
CENTRAL INDIANA

CITY           SKY/WX    TMP DP  RH WIND       PRES   REMARKS
ANDERSON       MOSUNNY   82  55  39 CALM      30.09F
CP ATTERBURY + MOSUNNY   82  57  42 S7        30.08F
COLUMBUS       PTSUNNY   81  61  50 CALM      30.07F
GREENWOOD *+   PTSUNNY   79  66  65 N6        30.09F
INDIANAPOLIS   MOSUNNY   81  59  47 E9        30.07F
-EAGLE CREEK   MOSUNNY   80  56  43 E7        30.07F
KOKOMO *+      SUNNY     81  61  50 E6        30.08S
MARION +       MOSUNNY   80  57  46 SW5       30.10S
MT COMFORT *+  MOSUNNY   79  66  65 W5        30.09S
SHELBYVILLE    MOSUNNY   84  63  49 E5        30.07F
ZIONSVILLE +   MOSUNNY   79  58  48 S7        30.09S

$$

INZ033-034-041-042-049-050-058-059-012100-
EAST CENTRAL INDIANA

CITY           SKY/WX    TMP DP  RH WIND       PRES   REMARKS
MUNCIE         PTSUNNY   78  60  53 N5        30.09F

$$

INZ060-061-067>069-081>083-085>088-012100-
SOUTHWEST INDIANA

CITY           SKY/WX    TMP DP  RH WIND       PRES   REMARKS
EVANSVILLE     PTSUNNY   85  58  39 E3        30.06F
WASHINGTON +   SUNNY     82  59  45 CALM      30.05F

$$

INZ062-063-066-070>080-084-089>092-012100-
SOUTH CENTRAL AND SOUTHEAST INDIANA

CITY           SKY/WX    TMP DP  RH WIND       PRES   REMARKS
BLOOMINGTON    SUNNY     82  60  47 SW6       30.08F
SEYMOUR +      MOSUNNY   81  41  24 CALM      30.06F

$$



USA.gov is the U.S. government's official web portal to all federal, state and local government web resources and services.